Flag for U.S.A. Weather past 2 weeks in Lafayette, Louisiana, U.S.A.

Now
73 °F

Clear.


Feels Like: 71 °F
Forecast: 77 / 90 °F
Wind: 5 mph from South

Location: Lafayette Regional Airport

Current Time: Jul 6, 2015 at 12:30:36 AM

Latest Report: Jul 5, 2015 at 11:53 PM


Visibility: 10 mi

Pressure: 30.09 "Hg

Humidity: 88%

Dew point: 69 °F

Location of LafayetteLocation

Historic Weather in Lafayette — Graph

°F

Lafayette temperature yesterday

Maximum temperature yesterday: 91 °F (at 12:53 PM)
Minimum temperature yesterday: 72 °F (at 9:53 PM)
Average temperature yesterday: 81 °F

Past Weeks' High & Low Weather Summary

 TemperatureHumidityPressure
High94 °F (Jun 23, 2:53 PM)97% (Jun 27, 10:53 PM)30.17 "Hg (Jun 27, 10:53 PM)
Low72 °F (Jun 28, 6:00 AM)49% (Jun 23, 2:53 PM)29.93 "Hg (Jun 27, 5:53 PM)
Average81 °F79%30.06 "Hg
* Reported Jun 21 12:53 AM — Jul 5 10:53 PM, Lafayette, Weather by CustomWeather, © 2015

Note: Actual official high and low records may vary slightly from our data, if they occured in-between our weather recording intervals... More about our weather records

Advertising

Lafayette weather history for previous 24 hours

 ConditionsComfort  
Time TempWeatherWind HumidityBarometerVisibility
10:53 PM
Sun, Jul 5
72 °FClear.No wind91%30.10 "Hg10 mi
9:53 PM72 °FClear.3 mph91%30.11 "Hg10 mi
8:53 PM73 °FPassing clouds.5 mph88%30.13 "Hg10 mi
7:53 PM75 °FBroken clouds.10 mph85%30.13 "Hg10 mi
6:53 PM81 °FPassing clouds.9 mph85%30.10 "Hg10 mi
5:53 PM84 °FSunny.5 mph74%30.08 "Hg10 mi
4:53 PM84 °FLight rain. Cloudy.9 mph77%30.05 "Hg10 mi
3:53 PM87 °FThundershowers. Passing clouds.9 mph67%30.06 "Hg10 mi
2:53 PM89 °FPartly sunny.13 mph63%30.06 "Hg10 mi
1:53 PM90 °FThundershowers. Passing clouds.10 mph59%30.07 "Hg10 mi
12:53 PM91 °FPassing clouds.10 mph61%30.09 "Hg10 mi
11:53 AM89 °FBroken clouds.10 mph65%30.11 "Hg10 mi
10:53 AM88 °FScattered clouds.9 mph70%30.10 "Hg10 mi
9:53 AM85 °FSunny.10 mph77%30.11 "Hg10 mi
8:53 AM82 °FSunny.5 mph85%30.10 "Hg10 mi
7:53 AM79 °FSunny.No wind90%30.10 "Hg10 mi
6:53 AM78 °FClear.No wind93%30.09 "Hg10 mi
5:53 AM77 °FClear.No wind94%30.09 "Hg10 mi
4:53 AM77 °FClear.No wind94%30.07 "Hg10 mi
3:53 AM77 °FClear.No wind94%30.06 "Hg10 mi
2:53 AM77 °FClear.3 mph94%30.04 "Hg10 mi
1:53 AM76 °FClear.3 mph94%30.04 "Hg10 mi
12:53 AM75 °FPassing clouds.No wind96%30.05 "Hg10 mi
Weather by CustomWeather, © 2015

See weather overviewHow to use our weather pages